User: anonymous   Login
Location: ??????
(42.0089°N, 44.3281°E)
Time: 17:34:50
(UTC+00:00)
Language:

Cosmos 1932 - Orbit

View from above orbital plane
View from above orbital plane
View from above satellite
View from above satellite

Ground track
Ground track

The orbit data is extracted from the following two-line orbital elements,

1 18957U 88019A   22019.48064740 -.00000058  00000-0  28330-4 0  9997
2 18957  65.0457 305.5461 0033049  41.2480 319.1066 13.79693434707066
Epoch (UTC): 19 January 2022 11:32:07
Eccentricity: 0.0033049
inclination: 65.0457°
perigee height: 941 km
apogee height: 989 km
right ascension of ascending node: 305.5461°
argument of perigee: 41.2480°
revolutions per day: 13.79693434
mean anomaly at epoch: 319.1066°
orbit number at epoch: 70706

The dashed part of the orbit path shows where the satellite is in the earth's shadow,  

DLR